Regional Weather Roundup
Issued by NWS Mt. Holly, NJ

Home | Current Version | Previous Version | Text Only | Print | Product List | Glossary On
Versions: 1 2 3 4 5 6 7 8 9 10 11 12 13 14 15 16 17 18 19 20 21 22 23 24 25 26 27 28 29 30 31 32 33 34 35 36 37 38 39 40 41 42 43 44 45 46 47 48 49 50
000
ASUS41 KPHI 052212
RWRPHI

REGIONAL WEATHER ROUNDUP
NATIONAL WEATHER SERVICE MOUNT HOLLY NJ
500 PM EST THU MAR 05 2015

NOTE:  "FAIR" INDICATES FEW OR NO CLOUDS BELOW 12,000 FEET WITH NO
SIGNIFICANT WEATHER AND/OR OBSTRUCTIONS TO VISIBILITY.

 * = STATION DOES NOT REPORT PRECIPITATION (E.G. RAIN, SNOW, ETC.)
        OR FOG.

NJZ015>026-052300-
SOUTHERN NEW JERSEY

CITY           SKY/WX    TMP DP  RH WIND       PRES   REMARKS
POMONA         SNOW      22  19  89 N14       30.19R VSB 1/2 WCI   9
RIO GRANDE*    CLOUDY    27  21  80 N12G18    30.20R VSB 1/2 WCI  16
MILLVILLE      SNOW      23  32 100 N14G24    30.22R VSB 1/2 WCI  11
WRIGHTSTOWN    LGT SNOW  19  18  93 N13       30.18S FOG     WCI   7
MOUNT HOLLY    SNOW      20  17  88 N7        30.23R VSB 1/4 WCI  11
TRENTON        LGT SNOW  20  16  84 N7        30.21R VSB 3/4 WCI  11

$$
NJZ001>014-052300-
NORTHERN NEW JERSEY

CITY           SKY/WX    TMP DP  RH WIND       PRES   REMARKS
SUSSEX         CLOUDY    22   1  40 N7        30.19R WCI  13
ANDOVER*         N/A     19  11  70 VRB3      30.19R
MORRISTOWN     FLURRIES  19  16  86 CALM      30.22R
NEWARK         SNOW      21  18  88 NW12      30.22R VSB 1/2 WCI   9
TETERBORO      LGT SNOW  19  16  86 NW7       30.21R FOG     WCI  10
CALDWELL       CLOUDY    20  14  77 W3        30.22R HAZE
SOMERVILLE     LGT SNOW  20  14  77 NW5       30.21S WCI  13
ALLAIRE*       CLOUDY    21  12  68 NW10      30.20R WCI  10
TOMS RIVER*    CLOUDY    21  18  86 N14       30.21R VSB 1   WCI   8

$$
PAZ043-044-047-054-055-060>062-066>071-052300-
EASTERN PENNSYLVANIA

CITY           SKY/WX    TMP DP  RH WIND       PRES   REMARKS
PHILADELPHIA   SNOW      20  16  84 N13       30.25R VSB 1/2 WCI   7
NORTH PHILA    LGT SNOW  22  17  81 NW9       30.23F VSB 1   WCI  12
BLUE BELL      CLOUDY    21  18  86 CALM      30.21S VSB 3/4
DOYLESTOWN     LGT SNOW  18  16  92 N6        30.19F FOG     WCI  10
QUAKERTOWN*    CLOUDY    18  14  86 N7        30.22R WCI   8
POTTSTOWN      LGT SNOW  18  15  88 N9        30.24F FOG     WCI   7
LANCASTER      LGT SNOW  19  15  84 NW6       30.25R FOG     WCI  11
COATESVILLE    LGT SNOW  19  18  93 N7        30.19F WCI  10
READING        CLOUDY    19  15  84 CALM      30.24R
ALLENTOWN      CLOUDY    20  11  68 W6        30.23R WCI  12
MOUNT POCONO   CLOUDY    13   1  59 NW12      30.08R WCI  -1
HAZLETON       CLOUDY    18   1  49 NW10      30.16R WCI   6
WILKES BARRE   CLOUDY    17   2  51 N13       30.19R WCI   4

$$
DEZALL-MDZ008-012-015-019-020-052300-
DELAWARE AND EASTERN MARYLAND

CITY           SKY/WX    TMP DP  RH WIND       PRES   REMARKS
WILMINGTON     SNOW      21  17  84 N10       30.22S VSB 1/2 WCI  10
GEORGETOWN     HVY SNOW  26  24  92 N10G17    30.20R VSB 1/4 WCI  16
EASTON         SNOW      27  27 100 N12G23    30.26R VSB 1/2 WCI  16
PATUXENT       HVY SNOW  28  26  92 N18       30.19R VSB 1/4 WCI  15
OCEAN CITY     MIX PCPN  29  27  92 N16       30.15R FOG     WCI  17
WALLOPS ISLAND MIX PCPN  31  28  89 NE16      30.14R FOG     WCI  20
CAMBRIDGE      CLOUDY    30  28  93 N12G17    30.20R VSB 3/4 WCI  21
SALISBURY      HVY SNOW  30  26  85 N12G21    30.17R VSB 1/4 WCI  20

$$
PAZ001-021-NYZ056-072-MDZ011-DCZ001-052300-
OTHER NEARBY LOCATIONS

CITY           SKY/WX    TMP DP  RH WIND       PRES   REMARKS
HARRISBURG     CLOUDY    21  14  74 W3        30.26R
STATE COLLEGE  CLOUDY    19  -2  38 NW8       30.23R WCI   9
WILLIAMSPORT   CLOUDY    21  -2  36 N9        30.25R WCI  11
BINGHAMTON     CLOUDY    11   3  70 NW8       30.15R WCI  -1
NEW YORK CITY  SNOW      20  16  84 NW9       30.22R VSB 1/2 WCI   9
BALTIMORE      LGT SNOW  24  21  88 N6        30.23R FOG     WCI  17
WASHINGTON DC  LGT SNOW  29  24  82 N13       30.25R VSB 1   WCI  19

$$


USA.gov is the U.S. government's official web portal to all federal, state and local government web resources and services.